[[{"header":{"parameterUnit":"m.s-1","parameterCategory":1,"la1":30.2992,"la2":30.254,"lo1":-89.0895,"lo2":-89.0443,"dy":0.0025,"dx":0.0025,"nx":19,"ny":19,"refTime":"2026-04-16T03:00:00:Z","depth":0,"parameterNumber":2,"parameterNumberName":"U-component_of_WINDS"},"data":[0,0,0,-1.2395,-1.2393,-1.2301,-1.2301,-1.22,-1.2199,0,0,0,0,0,0,0,0,0,0,0,-1.2433,-1.2433,-1.2395,-1.2393,-1.2301,-1.2301,-1.22,-1.2199,0,0,0,0,0,0,0,0,0,0,0,-1.2433,-1.2433,-1.2433,-1.2393,-1.2301,-1.2301,-1.22,-1.2263,0,0,0,0,0,0,0,0,0,0,-1.2349,-1.2396,-1.2433,-1.2433,-1.2392,-1.2301,-1.2301,-1.2266,-1.2259,-1.2249,0,-1.2244,0,-1.222,-1.2194,-1.2193,0,0,0,-1.2384,-1.2402,-1.2367,-1.2433,-1.2392,-1.2302,-1.234,-1.2262,-1.2255,-1.224,-1.2243,-1.2238,-1.2219,-1.2193,-1.2193,-1.2167,-1.2168,0,0,-1.2389,-1.2423,-1.2373,-1.2363,-1.238,-1.2343,-1.2337,-1.2257,-1.2261,-1.2242,-1.2236,-1.2217,-1.2192,-1.2192,-1.2167,-1.2167,0,0,0,-1.241,-1.2427,-1.2393,-1.2368,-1.235,-1.2341,-1.2334,-1.2265,-1.2251,-1.2234,-1.2216,-1.2192,-1.2191,-1.2167,-1.2167,-1.2215,0,0,0,-1.2412,-1.2438,-1.2396,-1.2415,-1.2352,-1.2306,-1.2344,-1.2257,-1.2247,-1.2216,-1.2192,-1.219,-1.2166,-1.2167,-1.2213,-1.2232,0,0,0,-1.2435,-1.2441,-1.2432,-1.2417,-1.2379,-1.2307,-1.2288,-1.2254,-1.2236,-1.2193,-1.219,-1.2166,-1.2167,-1.2211,-1.2229,-1.2236,0,0,0,-1.2469,-1.2475,-1.2433,-1.2432,-1.238,-1.2338,-1.2289,-1.2255,-1.2224,-1.2192,-1.2166,-1.2167,-1.2211,-1.2227,-1.2234,-1.2248,-1.2257,0,0,-1.2495,-1.2479,-1.2476,-1.2436,-1.241,-1.2349,-1.233,-1.2269,-1.2233,-1.2191,-1.219,-1.2214,-1.2229,-1.2235,-1.2295,-1.2303,0,0,0,-1.2495,-1.2493,-1.2479,-1.2452,-1.2407,-1.237,-1.2309,-1.2287,-1.225,-1.2219,-1.2217,-1.2225,-1.2227,-1.2232,-1.2239,-1.2239,-1.2171,-1.2171,-1.2171,-1.2578,-1.2534,-1.2526,-1.2471,-1.2446,-1.2384,-1.2359,-1.2318,-1.2279,-1.228,-1.2267,-1.2309,-1.2316,-1.232,-1.2321,-1.227,-1.2271,-1.2271,-1.2271,-1.2612,-1.2602,-1.2553,-1.2527,-1.248,-1.2457,-1.2398,-1.2372,-1.2343,-1.2314,-1.2314,-1.2287,-1.233,-1.2328,-1.2274,-1.2273,-1.2273,-1.2273,-1.2273,-1.2661,-1.2649,-1.2623,-1.2581,-1.2553,-1.2496,-1.2472,-1.243,-1.2389,-1.2389,-1.2371,-1.237,-1.2364,-1.2384,-1.2384,-1.2384,-1.2384,-1.2384,-1.2384,-1.2724,-1.2693,-1.2678,-1.2632,-1.261,-1.2575,-1.2513,-1.249,-1.2453,-1.2424,-1.2423,-1.2385,-1.2342,-1.2333,-1.2386,-1.2386,-1.2386,-1.2386,-1.2386,-1.2774,-1.2756,-1.2734,-1.2712,-1.2654,-1.263,-1.2576,-1.2532,-1.2506,-1.2496,-1.2458,-1.2433,-1.2414,-1.2408,-1.24,-1.2468,-1.2468,-1.2468,-1.2468,-1.2816,-1.2803,-1.2771,-1.2738,-1.2702,-1.2652,-1.2627,-1.258,-1.2527,-1.2508,-1.2492,-1.2478,-1.2474,-1.2456,-1.245,-1.2441,-1.2518,-1.2518,-1.2518,-1.2845,-1.2826,-1.2814,-1.2764,-1.2716,-1.2676,-1.2652,-1.2616,-1.2552,-1.252,-1.2493,-1.2491,-1.2466,-1.2461,-1.2428,-1.2419,-1.2402,0,0]},{"header":{"parameterUnit":"m.s-1","parameterCategory":1,"la1":30.2992,"la2":30.254,"lo1":-89.0895,"lo2":-89.0443,"dy":0.0025,"dx":0.0025,"nx":19,"ny":19,"refTime":"2026-04-16T03:00:00:Z","depth":0,"parameterNumber":3,"parameterNumberName":"V-component_of_WINDS"},"data":[0,0,0,3.7187,3.7189,3.724,3.724,3.7311,3.7311,0,0,0,0,0,0,0,0,0,0,0,3.7175,3.7176,3.7187,3.7189,3.724,3.724,3.7311,3.7311,0,0,0,0,0,0,0,0,0,0,0,3.7175,3.7176,3.7176,3.7189,3.724,3.724,3.731,3.727,0,0,0,0,0,0,0,0,0,0,3.7219,3.721,3.7175,3.7176,3.7189,3.724,3.7241,3.7268,3.7272,3.7289,0,3.7305,0,3.731,3.7316,3.7317,0,0,0,3.7186,3.7207,3.7218,3.7176,3.719,3.724,3.7216,3.727,3.7275,3.7295,3.7306,3.7309,3.7311,3.7317,3.7317,3.7426,3.7427,0,0,3.7183,3.7186,3.7215,3.7222,3.7215,3.7215,3.7218,3.7273,3.7285,3.7307,3.731,3.7312,3.7317,3.7318,3.7425,3.7426,0,0,0,3.7177,3.7184,3.7194,3.7219,3.7228,3.7216,3.722,3.7283,3.7286,3.7311,3.7313,3.7318,3.7319,3.7425,3.7426,3.7461,0,0,0,3.7175,3.718,3.7193,3.7195,3.7227,3.7256,3.7228,3.7282,3.7288,3.7312,3.7318,3.7319,3.7424,3.7425,3.7458,3.7477,0,0,0,3.7171,3.7179,3.7188,3.7195,3.7217,3.7255,3.7261,3.7283,3.7289,3.7317,3.732,3.7423,3.7425,3.7456,3.7473,3.7508,0,0,0,3.7166,3.7216,3.7189,3.7245,3.7217,3.7276,3.7261,3.7305,3.7332,3.7318,3.7424,3.7426,3.7455,3.7471,3.7506,3.7539,3.7552,0,0,3.7231,3.7224,3.7258,3.7234,3.73,3.7268,3.7339,3.7361,3.736,3.7404,3.7407,3.7459,3.7473,3.7507,3.7625,3.7636,0,0,0,3.7279,3.7303,3.732,3.7347,3.7366,3.7384,3.7395,3.7404,3.7441,3.7383,3.748,3.7488,3.7508,3.7524,3.7533,3.7551,3.7432,3.7432,3.7432,3.7374,3.7372,3.7428,3.7433,3.7459,3.7472,3.7493,3.7506,3.7495,3.7518,3.7532,3.7603,3.7622,3.7629,3.7648,3.7548,3.7548,3.7548,3.7548,3.747,3.7505,3.7491,3.754,3.7538,3.7579,3.7593,3.7584,3.7622,3.7592,3.761,3.7579,3.7641,3.7657,3.755,3.755,3.755,3.7549,3.7549,3.7533,3.755,3.756,3.7601,3.7632,3.7635,3.7673,3.7669,3.7665,3.7682,3.7698,3.7697,3.7698,3.769,3.769,3.769,3.769,3.7691,3.7691,3.7596,3.7606,3.764,3.7666,3.7684,3.7707,3.772,3.7738,3.7756,3.775,3.775,3.7738,3.7647,3.7625,3.7695,3.7694,3.7693,3.7693,3.7693,3.7697,3.7674,3.7725,3.7743,3.7774,3.7807,3.7801,3.7838,3.7851,3.7871,3.7855,3.7788,3.778,3.7773,3.7755,3.7854,3.7854,3.7854,3.7854,3.7752,3.7748,3.7801,3.783,3.7859,3.786,3.7919,3.793,3.7938,3.7947,3.7932,3.7907,3.79,3.7897,3.7887,3.787,3.7996,3.7996,3.7997,3.7815,3.7814,3.7865,3.7873,3.7898,3.7919,3.7975,3.801,3.8014,3.8002,3.7954,3.7948,3.7908,3.7895,3.7883,3.7868,3.7837,0,0]}]]